Simultaneous Nadir Overpasses (SNOs) Predictions

Prediction of SNOs between LANDSAT-8 and TERRA Satellite Orbit:

Table of predicted SNOs for the next 14.0 days since TLE Epoch: 9/21/2024
Index Date (LANDSAT-8) Time (LANDSAT-8) Lat,Lon (LANDSAT-8) SZA (LANDSAT-8 ) Date (TERRA) Time (TERRA) Lat,Lon (TERRA) SZA (TERRA ) Distance(km) Time Diff (sec)
1 10/05/2024 16:15:12 -81.80,-176.06 87.67 10/05/2024 16:16:22 -81.79,-175.87 87.61 3.03 70
2 10/05/2024 17:04:38 81.80, -8.34 92.36 10/05/2024 17:05:42 81.80, -8.36 92.39 0.39 64
3 10/05/2024 17:54:05 -81.80, 159.19 87.65 10/05/2024 17:55:04 -81.80, 159.13 87.62 1.08 59
4 10/05/2024 18:43:31 81.80, -33.09 92.38 10/05/2024 18:44:23 81.79, -32.94 92.43 2.33 52
5 10/05/2024 19:32:58 -81.80, 134.44 87.62 10/05/2024 19:33:45 -81.80, 134.55 87.58 1.76 47



Historial Predications of SNOs between LANDSAT-8 and TERRA
